Theta_e
343 348 347 348 347 346 346 346 348 350 354 355 353 350 349 348 349 350 350 351 348 348 346 348 347 351 351 352 350 352 352 353 353
344 347 347 348 349 346 347 347 349 350 354 356 355 352 351 352 351 350 348 349 349 348 350 349 349 352 354 353 352 352 351 350 350
345 347 348 348 348 348 347 348 349 350 351 354 354 352 353 352 352 353 352 350 349 350 349 348 349 351 350 352 352 353 352 349 349
346 347 348 348 348 348 347 348 349 350 352 352 355 351 353 350 351 352 354 353 351 351 352 350 349 353 353 353 353 353 352 351 351
344 345 347 347 348 348 349 348 349 351 351 352 352 350 351 350 348 350 352 354 353 353 353 353 352 352 353 353 352 352 352 353 352
347 347 349 348 348 350 352 349 351 353 353 352 352 349 348 350 352 352 352 353 354 354 354 355 353 352 353 353 352 350 351 352 351
349 349 350 350 350 352 351 352 353 354 353 353 353 349 349 352 351 352 353 353 353 354 354 355 355 354 352 352 352 352 352 351 351
348 351 351 351 351 353 356 356 356 355 355 355 354 355 355 355 356 354 355 354 352 354 354 354 354 354 354 353 353 353 353 351 351
349 350 351 351 352 353 354 354 355 356 357 357 356 358 357 357 357 357 357 356 355 354 354 354 354 355 354 354 354 352 352 351 351
350 348 348 351 352 354 353 354 355 357 358 358 358 358 358 358 358 358 358 358 357 357 356 354 355 354 354 355 355 354 352 350 350
349 348 347 349 349 350 352 354 355 355 357 357 358 357 357 357 356 356 356 356 356 356 356 356 357 355 355 354 354 354 352 349 350
347 350 349 349 348 350 352 353 355 357 358 358 358 357 355 355 354 354 354 354 352 353 354 353 354 354 354 353 353 352 350 346 345
342 347 350 352 352 355 356 356 356 355 354 353 353 352 353 351 352 351 351 352 352 351 352 352 350 351 350 351 352 349 346 344 343
342 343 349 353 355 356 356 352 351 351 351 351 351 350 349 349 348 349 349 350 349 349 349 348 347 346 345 345 344 345 343 343 341
345 345 350 353 356 355 352 350 349 350 350 350 348 349 348 347 346 345 345 346 346 347 348 347 346 345 345 344 340 337 335 336 335
345 348 350 352 354 353 350 348 348 348 349 348 349 349 347 346 346 345 345 345 345 345 347 344 344 344 343 342 339 337 335 335 336
347 347 351 352 352 352 348 347 347 348 348 349 348 348 347 346 346 345 343 343 343 342 342 342 341 340 340 340 340 338 337 337 335
350 348 350 351 352 350 348 347 347 349 350 349 348 346 346 344 343 342 342 337 338 338 337 337 338 339 339 339 339 337 334 335 336
351 350 351 353 353 350 347 346 348 350 348 348 347 345 342 340 338 340 339 337 333 333 333 333 333 333 333 333 332 332 332 333 333
349 350 351 352 352 349 346 346 349 349 348 347 346 342 340 338 336 337 336 336 336 335 330 330 330 330 331 331 330 331 330 329 329
Wind_Speed
10 17 21 22 23 27 30 29 30 30 30 27 27 26 25 24 21 19 19 16 17 18 19 25 22 22 16 14 11 14 13 13 11
11 14 19 22 23 28 29 29 31 31 31 29 28 28 27 28 26 23 21 20 20 19 18 18 23 20 17 16 16 16 16 15 15
10 11 15 21 21 28 30 31 31 29 29 29 29 29 27 27 23 22 20 18 20 18 18 17 9 15 18 17 17 17 17 16 16
12 9 13 17 18 26 28 28 29 29 26 27 26 28 26 27 24 22 21 22 21 21 19 17 17 12 13 16 15 18 17 18 15
5 9 11 13 19 26 24 26 27 26 29 28 29 27 26 26 27 27 24 24 23 23 23 23 20 19 19 19 19 19 17 17 17
6 7 11 14 17 19 24 27 26 25 24 26 27 28 25 25 24 24 25 25 25 25 25 24 24 23 23 23 24 23 22 22 20
10 9 12 15 16 16 22 22 23 24 24 23 23 28 27 25 27 25 25 24 26 25 25 25 24 23 23 24 24 24 24 24 23
12 12 14 16 17 16 19 20 20 21 22 21 22 22 22 22 22 25 24 25 28 24 23 25 25 23 23 22 24 25 26 27 25
14 14 16 17 17 17 20 23 23 22 21 21 22 22 21 20 19 19 21 22 22 23 23 23 22 24 24 24 24 26 27 25 25
15 16 16 17 18 18 23 25 24 23 21 19 17 16 17 17 17 19 19 19 20 21 22 22 22 22 23 23 25 26 27 25 25
16 17 17 16 15 19 21 20 19 17 17 16 16 15 15 14 13 13 13 15 17 18 18 20 20 22 23 23 21 22 21 14 14
16 16 17 16 20 20 19 20 20 18 17 16 15 12 9 9 8 8 9 10 14 15 16 19 18 18 18 18 17 18 19 15 15
8 14 18 19 21 22 22 21 20 19 17 15 14 13 12 9 8 9 8 8 8 10 7 7 9 9 5 5 7 9 10 13 16
7 12 19 21 23 22 22 22 21 20 18 17 16 14 13 10 9 8 7 7 6 5 6 6 7 6 3 3 5 5 9 12 14
4 10 18 24 23 23 22 22 23 22 19 19 19 17 14 12 11 9 7 7 6 6 5 5 4 4 5 5 2 3 5 7 11
6 9 17 22 24 23 23 23 22 21 20 20 18 16 14 12 10 9 8 7 7 5 6 5 5 5 4 4 3 1 2 3 3
7 9 15 22 25 23 23 22 21 21 23 20 17 14 13 12 11 9 8 8 7 4 4 5 3 3 4 5 6 5 2 2 3
9 9 15 23 24 25 25 25 24 24 23 23 19 15 13 11 11 10 7 3 6 3 2 1 2 1 0 2 4 6 4 3 2
7 7 14 20 24 26 26 27 26 25 23 23 22 17 13 11 10 10 9 8 4 5 2 3 2 2 0 1 2 4 5 4 5
3 8 14 20 22 23 21 22 23 22 22 23 23 20 17 14 9 10 9 12 11 9 4 2 2 3 4 5 4 4 4 6 5
Wind_Direction
179 193 189 196 195 194 184 184 185 185 183 188 189 193 198 199 203 210 214 208 218 235 226 252 192 191 207 217 214 211 212 221 229
188 195 192 193 189 192 186 184 188 188 182 190 190 193 197 197 199 206 213 224 218 235 245 202 226 186 201 215 218 215 217 228 232
185 188 197 185 190 189 188 188 187 191 189 194 194 197 199 201 203 206 211 220 226 226 232 239 237 239 198 212 221 220 221 227 227
163 186 192 189 183 181 189 191 185 190 191 198 202 205 201 205 209 213 212 217 219 225 228 237 242 242 223 218 229 222 220 233 253
125 174 184 197 176 175 181 187 186 188 194 199 203 203 199 208 212 214 215 218 221 220 222 228 229 226 225 221 222 235 227 231 237
157 185 174 185 179 178 179 184 187 187 195 199 204 203 206 213 213 212 218 215 218 221 221 225 228 224 224 223 226 227 228 228 232
163 177 172 177 175 180 179 186 185 183 197 199 206 205 217 211 215 219 221 219 222 219 221 224 228 231 228 228 231 229 232 231 232
168 172 178 177 175 173 176 186 184 183 197 200 204 211 213 221 212 218 217 218 226 228 224 225 229 232 236 236 238 236 231 234 235
180 176 183 176 177 177 182 187 190 194 199 204 205 205 213 215 220 219 219 224 225 227 229 233 230 232 237 238 242 244 241 231 238
189 179 179 177 180 180 183 184 187 189 192 194 199 208 213 215 217 220 224 225 227 231 230 230 233 237 240 241 240 246 245 238 236
182 184 180 178 178 176 177 177 179 180 182 187 193 200 207 212 217 218 221 225 228 231 232 238 238 240 238 238 242 243 252 244 235
168 187 185 183 181 176 170 168 167 165 170 175 181 176 185 195 199 199 209 221 227 227 231 236 242 244 246 242 242 241 251 250 250
169 175 184 178 170 162 166 163 163 161 165 170 176 178 176 174 179 188 201 210 220 230 237 248 250 252 251 237 251 238 240 243 247
180 172 172 173 163 169 167 165 162 163 161 167 160 156 151 148 150 154 152 166 173 189 199 203 210 201 224 239 234 267 261 252 254
215 177 164 171 165 170 169 168 166 163 163 154 152 149 146 147 145 141 148 149 155 176 179 165 163 162 193 168 165 230 296 284 272
220 194 164 175 169 169 170 172 171 162 149 153 151 151 148 145 147 150 156 163 171 177 183 187 192 192 161 160 154 158 38 61 64
238 192 175 177 174 167 169 171 169 160 157 153 154 153 153 155 153 156 161 173 165 190 183 194 206 224 187 171 160 143 179 188 122
277 193 190 181 176 170 171 169 168 165 161 159 151 157 167 168 166 175 161 66 101 106 126 115 95 218 100 247 208 165 198 187 181
286 209 190 188 173 172 173 172 169 164 167 160 158 164 168 180 173 181 186 175 156 179 192 174 214 228 191 54 216 251 223 211 207
305 263 195 196 175 172 167 175 171 164 175 172 171 171 167 167 199 192 178 201 175 166 180 216 233 227 219 216 213 186 158 137 125